[[{"header":{"parameterUnit":"m.s-1","parameterCategory":2,"la1":30.2991,"la2":30.254,"lo1":-89.0895,"lo2":-89.0444,"dy":0.0017,"dx":0.0017,"nx":28,"ny":28,"refTime":"2024-03-30T21:00:00:Z","depth":"0","parameterNumber":2,"parameterNumberName":"U-component_of_CURRENTS"},"data":[0,0,0,0,0,0,0,0,0,0,0,0,0,0,0,0,0,0,0,0,0,0,0,0,0,0,0,0,0,0,0,0,0,0,0,0,0,0,0,0,0,0,0,0,0,0,0,0,0,0,0,0,0,0,0,0,0,0,0.2884,0.2884,0,0.2894,0.2894,0.2893,0.2868,0.2868,0.2868,0.2867,0.2814,0.2813,0.2812,0,0,0,0,0,0,0,0,0,0,0,0,0,0.2843,0.2844,0.2884,0.2884,0.2885,0.2894,0.2894,0.2893,0.2868,0.2868,0.2867,0.2867,0.2815,0.2813,0.2812,0,0,0,0,0,0,0,0,0,0,0,0,0,0.2854,0.2844,0.2884,0.2877,0.2877,0.2894,0.2894,0.2893,0.2868,0.2868,0.2867,0.2867,0.2815,0.2814,0.2812,0.2813,0,0,0.2807,0.2806,0,0,0,0,0,0,0,0,0.2853,0.2854,0.2877,0.2878,0.2877,0.2883,0.286,0.2865,0.2869,0.2867,0.2867,0.2867,0.2835,0.2832,0.2829,0.2811,0.2808,0.2807,0.2806,0.2805,0.2805,0,0,0,0,0,0,0,0.2852,0.2854,0.2883,0.2878,0.2878,0.2874,0.2874,0.2861,0.2849,0.2867,0.2866,0.2875,0.2834,0.2831,0.2828,0.2807,0.2807,0.2806,0.2805,0.2804,0.2859,0.2862,0,0,0,0,0,0,0.2861,0.2853,0.2883,0.2884,0.2869,0.2876,0.2876,0.2878,0.285,0.2848,0.2875,0.2874,0.2834,0.283,0.2826,0.2869,0.2805,0.2804,0.2803,0.2857,0.286,0.2863,0,0,0,0,0,0,0.286,0.2863,0.2882,0.2873,0.2876,0.2877,0.288,0.2879,0.2883,0.2859,0.2853,0.2883,0.2833,0.2828,0.2841,0.2865,0.2803,0.2802,0.2854,0.2858,0.2861,0.2928,0,0,0,0,0,0,0.2859,0.2863,0.2868,0.2873,0.2877,0.2904,0.2881,0.288,0.2891,0.2889,0.2863,0.2857,0.2832,0.2844,0.284,0.2862,0.28,0.2851,0.2856,0.286,0.2922,0.2933,0.2942,0,0,0,0,0,0.2857,0.2869,0.2868,0.2872,0.2883,0.2905,0.2906,0.2902,0.2892,0.2902,0.2897,0.2858,0.287,0.2845,0.2839,0.2861,0.2849,0.2854,0.286,0.2918,0.2931,0.2942,0,0,0,0,0,0,0.2863,0.2868,0.2867,0.2881,0.2898,0.2903,0.2912,0.2912,0.2914,0.2912,0.2883,0.2878,0.2903,0.2881,0.2853,0.2896,0.2856,0.286,0.2902,0.2914,0.2924,0.2937,0.2799,0,0,0,0,0,0.2866,0.2868,0.2884,0.2897,0.2906,0.2911,0.2919,0.2921,0.2927,0.2926,0.2911,0.2907,0.2921,0.2916,0.2919,0.2931,0.297,0.2948,0.2958,0.2966,0.2977,0.3086,0.3107,0.288,0.288,0.288,0,0,0.2869,0.2877,0.2876,0.2898,0.2905,0.2925,0.2913,0.2935,0.2954,0.292,0.2936,0.2941,0.2937,0.2962,0.297,0.2943,0.3054,0.2973,0.298,0.2986,0.3094,0.3116,0.3136,0.2884,0.2884,0.2883,0,0,0.2883,0.2887,0.2894,0.291,0.2934,0.2942,0.2953,0.2967,0.2975,0.3,0.2994,0.3024,0.3015,0.3032,0.3037,0.3106,0.3111,0.31,0.3147,0.3253,0.3273,0.329,0.3379,0.3404,0.3096,0.3096,0.3096,0,0.2884,0.2898,0.2904,0.2923,0.2939,0.2953,0.2974,0.2992,0.301,0.3034,0.3015,0.3072,0.3056,0.3118,0.3137,0.3127,0.3185,0.3095,0.3267,0.3285,0.3302,0.3388,0.3415,0.31,0.3099,0.3099,0.3099,0,0.2907,0.2918,0.2929,0.295,0.2973,0.2994,0.3024,0.3051,0.3064,0.3088,0.3155,0.3162,0.3201,0.3201,0.3181,0.3291,0.3294,0.3274,0.3234,0.3329,0.3413,0.344,0.3105,0.3104,0.3103,0.3102,0,0,0.2895,0.2932,0.2933,0.2952,0.2987,0.3011,0.3056,0.3109,0.3157,0.3187,0.3261,0.329,0.3312,0.3323,0.332,0.339,0.3549,0.3379,0.3382,0.3462,0.3791,0.3711,0.3732,0.3567,0.3572,0.3576,0.3805,0,0.2905,0.2938,0.2958,0.2998,0.3019,0.3053,0.3097,0.3152,0.3201,0.3277,0.3328,0.3391,0.3355,0.3386,0.3461,0.3532,0.3622,0.3489,0.369,0.3696,0.3611,0.3761,0.3554,0.3734,0.3831,0.3835,0.3838,0,0.291,0.2936,0.297,0.3026,0.304,0.3073,0.3159,0.3202,0.3313,0.3358,0.3447,0.349,0.3605,0.3559,0.3759,0.3681,0.3749,0.3795,0.3806,0.3725,0.3666,0.3654,0.3779,0.364,0.3879,0.3876,0.3873,0,0.2892,0.2941,0.2969,0.2985,0.3054,0.3091,0.3134,0.3229,0.3289,0.3424,0.3499,0.363,0.3719,0.3834,0.3923,0.3868,0.4145,0.4083,0.4082,0.4077,0.3935,0.3908,0.3941,0.4249,0.4248,0.4248,0.4247,0,0.2887,0.291,0.2966,0.2983,0.3038,0.309,0.3169,0.3232,0.3353,0.3461,0.3546,0.3672,0.3797,0.3951,0.401,0.4144,0.4234,0.4134,0.4149,0.3951,0.3924,0.382,0.3758,0.4256,0.4254,0.4253,0.4251,0,0.2861,0.289,0.2932,0.3005,0.3028,0.3071,0.3173,0.3257,0.3354,0.3509,0.3563,0.3756,0.3959,0.4072,0.4276,0.4259,0.4251,0.4398,0.4144,0.4123,0.393,0.3879,0.3849,0.3747,0.444,0.4439,0.4439,0,0.2847,0.2866,0.2935,0.2977,0.3013,0.308,0.3151,0.3246,0.3346,0.3568,0.3667,0.3888,0.4028,0.428,0.4313,0.4424,0.4288,0.4275,0.4114,0.3931,0.3888,0.3737,0.3641,0.3969,0.3965,0.3962,0.3959,0,0.2838,0.2864,0.2913,0.2991,0.3064,0.3115,0.3219,0.3272,0.3426,0.3541,0.3729,0.3843,0.408,0.4095,0.4215,0.4248,0.4023,0.4207,0.41,0.3602,0.3362,0.3264,0.3802,0.3929,0.3932,0.3934,0.3936,0.3937,0.2842,0.2878,0.2954,0.3024,0.3092,0.3137,0.3144,0.3261,0.335,0.348,0.3683,0.3786,0.3865,0.399,0.3996,0.3824,0.3858,0.3675,0.3662,0.3551,0.3334,0.3798,0.3875,0.3878,0.388,0.3882,0.3884,0,0.2866,0.292,0.2991,0.3052,0.3093,0.3129,0.3193,0.3169,0.321,0.3381,0.3488,0.3539,0.3511,0.3542,0.3427,0.3282,0.3127,0.3188,0.2918,0.2879,0.3371,0.3226,0.3064,0.3064,0.3064,0.3064,0.3064,0.3064,0.2894,0.2964,0.2998,0.3038,0.3065,0.3032,0.3022,0.298,0.3031,0.3025,0.3051,0.3141,0.3196,0.3112,0.2915,0.2841,0.2629,0.2497,0.2548,0.2861,0.2903,0.2943,0.2791,0.254,0.254,0.1894,0.1889,0.1885]},{"header":{"parameterUnit":"m.s-1","parameterCategory":2,"la1":30.2991,"la2":30.254,"lo1":-89.0895,"lo2":-89.0444,"dy":0.0017,"dx":0.0017,"nx":28,"ny":28,"refTime":"2024-03-30T21:00:00:Z","depth":"0","parameterNumber":3,"parameterNumberName":"V-component_of_CURRENTS"},"data":[0,0,0,0,0,0,0,0,0,0,0,0,0,0,0,0,0,0,0,0,0,0,0,0,0,0,0,0,0,0,0,0,0,0,0,0,0,0,0,0,0,0,0,0,0,0,0,0,0,0,0,0,0,0,0,0,0,0,0.0233,0.0233,0,0.0195,0.0194,0.0194,0.015,0.015,0.015,0.0149,0.008,0.0079,0.0077,0,0,0,0,0,0,0,0,0,0,0,0,0,0.0232,0.0232,0.0233,0.0233,0.0233,0.0195,0.0194,0.0193,0.015,0.015,0.0149,0.0149,0.0081,0.0079,0.0077,0,0,0,0,0,0,0,0,0,0,0,0,0,0.0214,0.0232,0.0233,0.0209,0.0207,0.0195,0.0194,0.0193,0.015,0.015,0.0149,0.0149,0.0081,0.0079,0.0077,0.0073,0,0,0.007,0.0069,0,0,0,0,0,0,0,0,0.0215,0.0214,0.0213,0.0211,0.0208,0.018,0.0168,0.0153,0.0151,0.0169,0.0149,0.0149,0.0113,0.0108,0.0098,0.007,0.0067,0.007,0.0068,0.0067,0.0067,0,0,0,0,0,0,0,0.0216,0.0215,0.0215,0.0213,0.021,0.0188,0.0184,0.0165,0.0141,0.0167,0.0165,0.0165,0.0111,0.01,0.0096,0.0066,0.007,0.0068,0.0066,0.0065,0.0038,0.0038,0,0,0,0,0,0,0.023,0.0216,0.0216,0.0214,0.0214,0.0188,0.0185,0.0187,0.0142,0.0136,0.0166,0.0164,0.0104,0.0099,0.0093,0.0106,0.0067,0.0065,0.0064,0.0037,0.0038,0.0038,0,0,0,0,0,0,0.023,0.023,0.0218,0.0217,0.0214,0.019,0.0192,0.0186,0.0179,0.0142,0.0134,0.0165,0.0104,0.0097,0.008,0.0102,0.0064,0.0062,0.0036,0.0037,0.0038,0.0119,0,0,0,0,0,0,0.023,0.0231,0.0235,0.0218,0.0215,0.0219,0.0193,0.0186,0.0182,0.0178,0.0139,0.0131,0.0103,0.0084,0.0078,0.0099,0.006,0.0035,0.0037,0.0038,0.0116,0.0123,0.0129,0,0,0,0,0,0.023,0.0247,0.0236,0.0236,0.0222,0.022,0.0216,0.0195,0.0182,0.0184,0.0156,0.0133,0.0087,0.0083,0.0076,0.0096,0.0035,0.0036,0.0038,0.0113,0.0122,0.0129,0,0,0,0,0,0,0.0253,0.0244,0.0231,0.0245,0.0235,0.0214,0.0217,0.0202,0.0182,0.0177,0.0138,0.013,0.0122,0.0097,0.0093,0.009,0.0058,0.0058,0.0118,0.0126,0.0132,0.0165,0.0058,0,0,0,0,0,0.0261,0.0267,0.0253,0.0264,0.0261,0.0239,0.0235,0.0222,0.0204,0.0194,0.0167,0.014,0.0123,0.0115,0.009,0.0091,0.0088,0.0099,0.0106,0.0112,0.0133,0.0139,0.0149,0.0043,0.0043,0.0043,0,0,0.0272,0.0269,0.0271,0.0269,0.0257,0.0266,0.0235,0.0236,0.0248,0.019,0.0193,0.0159,0.0126,0.0124,0.012,0.0107,0.0142,0.0114,0.0119,0.0137,0.0142,0.0152,0.0162,0.0044,0.0044,0.0044,0,0,0.0302,0.0295,0.0309,0.0307,0.0301,0.0289,0.0294,0.0276,0.0272,0.027,0.0232,0.0216,0.0187,0.0171,0.016,0.0189,0.0172,0.0178,0.0245,0.025,0.026,0.0268,0.0288,0.0298,0.0187,0.0187,0.0188,0,0.0313,0.0333,0.0314,0.0329,0.0338,0.0305,0.0327,0.0321,0.0301,0.031,0.0282,0.0257,0.0215,0.0233,0.0235,0.0207,0.0213,0.0219,0.0261,0.0269,0.0276,0.0295,0.0304,0.0191,0.0191,0.0191,0.019,0,0.0354,0.0369,0.0381,0.0389,0.0394,0.0409,0.0401,0.0406,0.0394,0.0388,0.0399,0.035,0.0343,0.0321,0.0284,0.0316,0.0306,0.0266,0.0247,0.0292,0.0309,0.0317,0.0197,0.0196,0.0195,0.0194,0,0,0.0382,0.0404,0.041,0.0433,0.043,0.0447,0.0467,0.0486,0.0526,0.0494,0.055,0.0494,0.0474,0.046,0.0417,0.0413,0.0451,0.0368,0.0366,0.04,0.0485,0.044,0.0444,0.0422,0.0423,0.0424,0.0481,0,0.042,0.047,0.0468,0.0522,0.0548,0.0537,0.0571,0.0583,0.0591,0.0634,0.0598,0.0623,0.0529,0.0542,0.0521,0.0476,0.0476,0.0441,0.0427,0.0427,0.039,0.0453,0.0436,0.0481,0.0489,0.0491,0.0491,0,0.0462,0.0495,0.0554,0.0608,0.0621,0.0651,0.0714,0.074,0.0777,0.0789,0.08,0.0778,0.0779,0.0693,0.0652,0.0637,0.0572,0.0526,0.0526,0.0465,0.0397,0.0433,0.0495,0.032,0.0504,0.0503,0.0502,0,0.0509,0.0559,0.0615,0.0631,0.0681,0.0721,0.0751,0.0792,0.0851,0.0905,0.0969,0.0939,0.0973,0.0879,0.0769,0.0722,0.0731,0.0651,0.0553,0.055,0.0523,0.0514,0.0424,0.0627,0.0627,0.0627,0.0627,0,0.0558,0.0607,0.065,0.0688,0.0776,0.0788,0.0896,0.0919,0.1001,0.1114,0.1064,0.1165,0.1023,0.1003,0.0855,0.075,0.0798,0.0593,0.0568,0.055,0.0543,0.0376,0.0292,0.0629,0.0628,0.0628,0.0628,0,0.061,0.0628,0.0706,0.0775,0.0803,0.0873,0.099,0.1083,0.1138,0.1295,0.133,0.1364,0.1339,0.1183,0.1064,0.0894,0.068,0.0714,0.0708,0.068,0.0383,0.0305,0.0235,0.0171,0.0618,0.0617,0.0617,0,0.0644,0.0687,0.0776,0.0838,0.0879,0.0983,0.1073,0.1144,0.1259,0.1435,0.1536,0.1566,0.1622,0.1426,0.1131,0.0888,0.0706,0.0687,0.0569,0.039,0.0286,0.0229,0.0177,0.0577,0.0576,0.0575,0.0575,0,0.0719,0.0748,0.0815,0.0932,0.1034,0.1153,0.1289,0.1397,0.1526,0.1673,0.1869,0.1932,0.1761,0.152,0.1158,0.0964,0.0565,0.0663,0.0486,0.0262,0.0192,0.0112,0.0522,0.0569,0.0569,0.057,0.057,0.057,0.0781,0.0839,0.0925,0.1036,0.1158,0.1315,0.1432,0.1604,0.1801,0.2036,0.2096,0.2226,0.1835,0.1348,0.1074,0.0505,0.053,0.0303,0.0235,0.0203,0.0101,0.05,0.0498,0.0498,0.0498,0.0498,0.0498,0,0.0842,0.0908,0.1025,0.1162,0.1308,0.1354,0.1573,0.171,0.1956,0.2189,0.2357,0.2229,0.1761,0.1254,0.0491,0.0129,0.0015,-0.0066,-0.0157,-0.0184,0.018,0.0131,0.0039,0.0039,0.0039,0.0039,0.004,0.004,0.0882,0.0981,0.1032,0.1254,0.1369,0.1562,0.1689,0.1902,0.2093,0.2343,0.2428,0.2463,0.2009,0.0753,-0.0095,-0.0271,-0.049,-0.0535,-0.063,-0.0418,-0.039,-0.0363,-0.0432,-0.0639,-0.064,-0.0967,-0.0971,-0.0973]}],[{"header":{"parameterUnit":"m.s-1","parameterCategory":2,"la1":30.2991,"la2":30.254,"lo1":-89.0895,"lo2":-89.0444,"dy":0.0017,"dx":0.0017,"nx":28,"ny":28,"refTime":"2024-03-30T21:00:00:Z","depth":"2","parameterNumber":2,"parameterNumberName":"U-component_of_CURRENTS"},"data":[0,0,0,0,0,0,0,0,0,0,0,0,0,0,0,0,0,0,0,0,0,0,0,0,0,0,0,0,0,0,0,0,0,0,0,0,0,0,0,0,0,0,0,0,0,0,0,0,0,0,0,0,0,0,0,0,0,0,0.2273,0.2273,0,0.2302,0.2302,0.2303,0.231,0.231,0.231,0.231,0.2318,0.2318,0.2319,0,0,0,0,0,0,0,0,0,0,0,0,0,0.223,0.223,0.2273,0.2273,0.2274,0.2302,0.2302,0.2303,0.231,0.231,0.231,0.231,0.2318,0.2318,0.2319,0,0,0,0,0,0,0,0,0,0,0,0,0,0.2251,0.223,0.2273,0.2282,0.2283,0.2302,0.2302,0.2303,0.231,0.231,0.231,0.2309,0.2318,0.2318,0.2319,0.2324,0,0,0.232,0.232,0,0,0,0,0,0,0,0,0.225,0.2253,0.228,0.2281,0.2282,0.2303,0.229,0.2309,0.231,0.2298,0.231,0.2309,0.2312,0.2313,0.2318,0.2325,0.2325,0.232,0.2321,0.2321,0.2321,0,0,0,0,0,0,0,0.2249,0.2252,0.2283,0.228,0.2282,0.2286,0.2289,0.2294,0.2304,0.2299,0.23,0.2305,0.2312,0.2317,0.2318,0.2325,0.232,0.2321,0.2321,0.2321,0.2395,0.2397,0,0,0,0,0,0,0.2247,0.225,0.2282,0.2284,0.2267,0.2287,0.229,0.2296,0.2305,0.2307,0.2305,0.2306,0.2316,0.2317,0.2318,0.2369,0.2321,0.2321,0.2322,0.2394,0.2396,0.2398,0,0,0,0,0,0,0.2246,0.225,0.2281,0.2269,0.2273,0.2288,0.2294,0.2296,0.2313,0.231,0.2311,0.2322,0.2316,0.2317,0.2339,0.2367,0.2321,0.2322,0.2392,0.2394,0.2397,0.2442,0,0,0,0,0,0,0.2245,0.2249,0.2257,0.2269,0.2274,0.23,0.2294,0.2297,0.2317,0.2317,0.2324,0.2324,0.2316,0.2339,0.234,0.2367,0.2322,0.239,0.2393,0.2396,0.2438,0.2446,0.2452,0,0,0,0,0,0.2243,0.2258,0.2257,0.2261,0.2282,0.2301,0.2304,0.2313,0.2318,0.2328,0.2338,0.2324,0.236,0.234,0.2341,0.2369,0.2388,0.2392,0.2396,0.2435,0.2444,0.2452,0,0,0,0,0,0,0.2254,0.2261,0.2259,0.2278,0.229,0.2303,0.2322,0.2323,0.234,0.2347,0.234,0.2341,0.2371,0.2368,0.2346,0.2403,0.2374,0.2379,0.2404,0.2413,0.242,0.2438,0.2323,0,0,0,0,0,0.2257,0.2262,0.2274,0.2289,0.2302,0.2313,0.2325,0.2329,0.2343,0.2351,0.2356,0.2369,0.2386,0.2397,0.2406,0.2434,0.246,0.2456,0.2463,0.2469,0.2487,0.2569,0.2585,0.241,0.241,0.241,0,0,0.2259,0.227,0.2269,0.2291,0.2307,0.2324,0.2321,0.2346,0.2359,0.235,0.2379,0.2389,0.2399,0.2431,0.2445,0.2433,0.2529,0.2474,0.2478,0.2493,0.2575,0.2592,0.2607,0.2413,0.2412,0.2412,0,0,0.2268,0.2288,0.2292,0.2309,0.2335,0.2345,0.2355,0.2374,0.2387,0.2412,0.2415,0.2447,0.2464,0.2483,0.2493,0.2546,0.256,0.2552,0.2604,0.2683,0.2699,0.2712,0.275,0.2767,0.2558,0.2559,0.2559,0,0.2268,0.2288,0.2298,0.2318,0.2339,0.2356,0.2375,0.2392,0.2412,0.2439,0.2428,0.2494,0.2492,0.2549,0.2569,0.2561,0.2603,0.2567,0.2693,0.2708,0.2721,0.2756,0.2774,0.2561,0.2561,0.2561,0.256,0,0.2287,0.2304,0.2323,0.2346,0.2363,0.2394,0.2414,0.2441,0.2463,0.2485,0.2547,0.2558,0.2606,0.2608,0.2604,0.27,0.2696,0.2689,0.2671,0.2742,0.2774,0.2792,0.2565,0.2564,0.2563,0.2563,0,0,0.2268,0.2321,0.2324,0.2341,0.2388,0.24,0.2443,0.249,0.254,0.2566,0.2639,0.2666,0.2698,0.2714,0.272,0.2782,0.2894,0.2786,0.2789,0.2821,0.3062,0.298,0.2991,0.2925,0.2929,0.2932,0.3039,0,0.228,0.2315,0.2342,0.2375,0.2396,0.2439,0.2483,0.2526,0.2576,0.2653,0.2695,0.2763,0.2731,0.2774,0.2834,0.289,0.2948,0.2864,0.2991,0.2994,0.2913,0.3012,0.274,0.2808,0.3056,0.3059,0.3062,0,0.228,0.2307,0.2346,0.2398,0.2416,0.2445,0.2532,0.2575,0.2686,0.2734,0.2817,0.2862,0.2958,0.2924,0.3057,0.3015,0.3051,0.3077,0.3082,0.3008,0.2948,0.2783,0.2831,0.3092,0.3089,0.3087,0.3085,0,0.2252,0.23,0.2335,0.2356,0.2428,0.2464,0.2511,0.2607,0.2673,0.2806,0.2886,0.2986,0.3067,0.3136,0.3194,0.3151,0.3343,0.3281,0.3231,0.3224,0.3016,0.2984,0.3387,0.3387,0.3387,0.3387,0.3386,0,0.2255,0.2273,0.2328,0.2355,0.2408,0.2457,0.2546,0.2613,0.2745,0.2855,0.2939,0.3049,0.3137,0.3247,0.3265,0.3319,0.3404,0.3269,0.3267,0.302,0.2989,0.3252,0.3235,0.3391,0.339,0.3389,0.3388,0,0.2218,0.2262,0.2298,0.2374,0.2401,0.2438,0.2558,0.2633,0.2759,0.2911,0.2969,0.3141,0.3272,0.3336,0.3462,0.341,0.3462,0.3456,0.3142,0.3101,0.3259,0.3243,0.3393,0.3391,0.339,0.3389,0.3388,0,0.2204,0.2225,0.2299,0.2337,0.238,0.2447,0.2513,0.2629,0.2705,0.2965,0.3034,0.3229,0.3306,0.344,0.3412,0.3416,0.349,0.3167,0.3019,0.3287,0.327,0.3256,0.3242,0.2752,0.2746,0.2741,0.2737,0,0.218,0.2215,0.2244,0.2326,0.2387,0.2436,0.2525,0.2575,0.2743,0.2855,0.3031,0.3125,0.3271,0.3156,0.3177,0.3143,0.3134,0.3064,0.3479,0.279,0.2691,0.2671,0.2677,0.2693,0.2697,0.2701,0.2703,0.2705,0.2158,0.2164,0.2227,0.2275,0.2366,0.2406,0.2418,0.2482,0.2554,0.2676,0.2867,0.2907,0.2957,0.2826,0.2761,0.2719,0.291,0.2756,0.2768,0.2786,0.269,0.2595,0.2558,0.2562,0.2565,0.2567,0.257,0,0.2118,0.2132,0.2184,0.2237,0.2294,0.2369,0.2423,0.2379,0.2385,0.248,0.2552,0.2363,0.229,0.2372,0.2221,0.2204,0.2149,0.2125,0.2024,0.2071,0.2112,0.1977,0.1658,0.1655,0.1653,0.165,0,0,0.211,0.2099,0.2094,0.2123,0.2201,0.2248,0.2252,0.214,0.2135,0.2047,0.2036,0.2188,0.2289,0.1936,0.1887,0.1753,0.1893,0.1684,0.2419,0.2347,0.2383,0.2486,0.2334,0,0,0,0,0]},{"header":{"parameterUnit":"m.s-1","parameterCategory":2,"la1":30.2991,"la2":30.254,"lo1":-89.0895,"lo2":-89.0444,"dy":0.0017,"dx":0.0017,"nx":28,"ny":28,"refTime":"2024-03-30T21:00:00:Z","depth":"2","parameterNumber":3,"parameterNumberName":"V-component_of_CURRENTS"},"data":[0,0,0,0,0,0,0,0,0,0,0,0,0,0,0,0,0,0,0,0,0,0,0,0,0,0,0,0,0,0,0,0,0,0,0,0,0,0,0,0,0,0,0,0,0,0,0,0,0,0,0,0,0,0,0,0,0,0,0.0001,0.0001,0,-0.0035,-0.0035,-0.0036,-0.0061,-0.0061,-0.0061,-0.0061,-0.0106,-0.0107,-0.0108,0,0,0,0,0,0,0,0,0,0,0,0,0,0.0008,0.0008,0.0001,0.0001,0.0001,-0.0035,-0.0035,-0.0036,-0.0061,-0.0061,-0.0061,-0.0061,-0.0105,-0.0107,-0.0108,0,0,0,0,0,0,0,0,0,0,0,0,0,-0.0009,0.0008,0.0002,-0.0016,-0.0017,-0.0034,-0.0035,-0.0036,-0.0061,-0.0061,-0.0061,-0.0061,-0.0105,-0.0106,-0.0108,-0.0114,0,0,-0.0113,-0.0114,0,0,0,0,0,0,0,0,-0.0008,-0.0009,-0.0013,-0.0014,-0.0016,-0.0043,-0.0049,-0.0062,-0.0061,-0.0045,-0.0061,-0.0061,-0.0085,-0.0088,-0.0095,-0.0116,-0.0118,-0.0113,-0.0114,-0.0115,-0.0115,0,0,0,0,0,0,0,-0.0007,-0.0008,-0.0014,-0.0013,-0.0015,-0.0035,-0.0038,-0.0052,-0.0064,-0.0046,-0.0048,-0.0051,-0.0086,-0.0094,-0.0097,-0.0118,-0.0113,-0.0114,-0.0115,-0.0116,-0.0143,-0.0142,0,0,0,0,0,0,0.0002,-0.0006,-0.0012,-0.0015,-0.0012,-0.0035,-0.0038,-0.0035,-0.0064,-0.0068,-0.0051,-0.0052,-0.0091,-0.0095,-0.0098,-0.009,-0.0115,-0.0116,-0.0117,-0.0143,-0.0143,-0.0142,0,0,0,0,0,0,0.0002,0.0002,-0.0011,-0.0011,-0.0014,-0.0035,-0.0031,-0.0035,-0.0039,-0.0067,-0.0072,-0.005,-0.0091,-0.0096,-0.0106,-0.0092,-0.0117,-0.0118,-0.0143,-0.0143,-0.0142,-0.0084,0,0,0,0,0,0,0.0003,0.0002,0.0007,-0.001,-0.0014,-0.0011,-0.0031,-0.0036,-0.0041,-0.0043,-0.0068,-0.0073,-0.0092,-0.0104,-0.0108,-0.0095,-0.012,-0.0143,-0.0143,-0.0143,-0.0087,-0.0082,-0.0078,0,0,0,0,0,0.0003,0.0014,0.0008,0.0007,-0.0006,-0.0011,-0.0014,-0.003,-0.004,-0.0036,-0.0057,-0.0072,-0.0104,-0.0105,-0.011,-0.0097,-0.0144,-0.0143,-0.0143,-0.0088,-0.0083,-0.0078,0,0,0,0,0,0,0.0019,0.0012,0.0005,0.0013,0.0006,-0.0014,-0.0014,-0.0025,-0.0038,-0.0041,-0.0069,-0.0074,-0.008,-0.0098,-0.0098,-0.0105,-0.0126,-0.0127,-0.0083,-0.0079,-0.0074,-0.0053,-0.0121,0,0,0,0,0,0.0025,0.0033,0.002,0.0027,0.0025,0.0006,0.0002,-0.0008,-0.0022,-0.0028,-0.0046,-0.0067,-0.0082,-0.0087,-0.0105,-0.0106,-0.0124,-0.0102,-0.0098,-0.0094,-0.0081,-0.0095,-0.0091,-0.014,-0.014,-0.014,0,0,0.0032,0.003,0.0033,0.0031,0.0022,0.0028,0.0003,0.0002,0.001,-0.0031,-0.0028,-0.0054,-0.008,-0.0083,-0.0087,-0.0095,-0.0092,-0.0094,-0.009,-0.0079,-0.0094,-0.0089,-0.0085,-0.014,-0.014,-0.014,0,0,0.0052,0.0049,0.0062,0.0062,0.0056,0.0046,0.0049,0.0034,0.0031,0.0027,-0.0,-0.0015,-0.0038,-0.0051,-0.0062,-0.0045,-0.0072,-0.0053,-0.0009,-0.0023,-0.0019,-0.0015,-0.0039,-0.0038,-0.0047,-0.0047,-0.0047,0,0.006,0.0077,0.0064,0.0079,0.0085,0.0058,0.0076,0.0069,0.0054,0.0057,0.0037,0.0007,-0.002,-0.0017,-0.0014,-0.0033,-0.0049,-0.0024,-0.0016,-0.0013,-0.001,-0.0035,-0.0035,-0.0044,-0.0045,-0.0045,-0.0045,0,0.0092,0.0106,0.0114,0.0126,0.013,0.0141,0.0133,0.0136,0.0123,0.0113,0.0111,0.0072,0.006,0.0043,0.0019,0.0029,0.0008,-0.0011,-0.0025,-0.0001,-0.003,-0.003,-0.004,-0.0041,-0.0042,-0.0043,0,0,0.0112,0.0133,0.0138,0.0157,0.0159,0.017,0.0184,0.0194,0.0216,0.0186,0.0213,0.0169,0.0148,0.0135,0.0102,0.0086,0.008,0.0052,0.005,0.0037,0.0045,0.0017,0.0014,0.0065,0.0066,0.0066,0.0015,0,0.0142,0.0185,0.0185,0.0226,0.0247,0.0239,0.0264,0.0268,0.0263,0.0281,0.0242,0.025,0.0184,0.0189,0.0159,0.0108,0.0083,0.0096,0.0018,0.0016,-0.0005,0.0014,0.0034,-0.0011,0.0014,0.0014,0.0014,0,0.0176,0.0202,0.025,0.029,0.03,0.0324,0.0364,0.0381,0.0391,0.0392,0.0381,0.0353,0.0332,0.0276,0.0192,0.0205,0.0132,0.008,0.0077,0.0034,-0.0012,-0.003,-0.0013,0.0013,0.0013,0.0013,0.0013,0,0.0208,0.0249,0.0293,0.0307,0.0345,0.0375,0.0397,0.0417,0.0455,0.0472,0.0508,0.0453,0.0457,0.0358,0.0246,0.0223,0.0155,0.0107,0.0008,0.0004,-0.0002,-0.0006,0.0047,0.0047,0.0047,0.0047,0.0048,0,0.0246,0.0282,0.0317,0.0347,0.0409,0.0422,0.0494,0.0507,0.0556,0.0629,0.0575,0.0628,0.0482,0.0425,0.0291,0.0158,0.0186,0.0024,-0.0004,0.0017,0.0015,0.0018,0.0015,0.0045,0.0046,0.0046,0.0047,0,0.0278,0.0299,0.0354,0.0407,0.0429,0.0477,0.0562,0.0618,0.0658,0.0757,0.0778,0.0765,0.069,0.0529,0.0379,0.0236,0.01,0.0043,0.0073,0.0049,-0.0061,-0.006,-0.0084,-0.0085,-0.0087,-0.0087,-0.0088,0,0.0299,0.0332,0.04,0.044,0.047,0.0544,0.0604,0.0661,0.0735,0.0856,0.0917,0.0888,0.0876,0.0633,0.0383,0.0138,0.0108,-0.0008,-0.0058,-0.0046,-0.0071,-0.0069,-0.0066,-0.005,-0.005,-0.005,-0.0051,0,0.0337,0.0362,0.0407,0.0489,0.0558,0.0642,0.0738,0.0816,0.0916,0.1021,0.1144,0.1149,0.093,0.0697,0.0357,0.0188,0.0026,-0.0024,0.0004,-0.002,-0.0017,-0.0041,-0.0039,-0.0053,-0.0053,-0.0053,-0.0053,-0.0053,0.0364,0.0398,0.0458,0.0541,0.0617,0.0734,0.083,0.096,0.1109,0.1281,0.1273,0.1291,0.1017,0.0577,0.0303,0.0008,0.0004,-0.0112,-0.0109,-0.0107,-0.0094,-0.0093,-0.0142,-0.0142,-0.0142,-0.0142,-0.0142,0,0.0393,0.0436,0.0508,0.0609,0.0711,0.0747,0.0915,0.1041,0.1246,0.1366,0.1456,0.1195,0.093,0.0626,0.0191,-0.0083,-0.0104,-0.0168,-0.0128,-0.0123,-0.012,-0.0107,-0.0159,-0.016,-0.016,-0.0161,0,0,0.041,0.0473,0.0512,0.0671,0.0754,0.0899,0.1008,0.1212,0.1337,0.1464,0.1472,0.14,0.1022,0.07,0.0339,0.0104,0.0052,0.0047,0.0087,0.0182,0.0189,-0.0066,-0.0039,0,0,0,0,0]}],[{"header":{"parameterUnit":"m.s-1","parameterCategory":2,"la1":30.2991,"la2":30.254,"lo1":-89.0895,"lo2":-89.0444,"dy":0.0017,"dx":0.0017,"nx":28,"ny":28,"refTime":"2024-03-30T21:00:00:Z","depth":"4","parameterNumber":2,"parameterNumberName":"U-component_of_CURRENTS"},"data":[0,0,0,0,0,0,0,0,0,0,0,0,0,0,0,0,0,0,0,0,0,0,0,0,0,0,0,0,0,0,0,0,0,0,0,0,0,0,0,0,0,0,0,0,0,0,0,0,0,0,0,0,0,0,0,0,0,0,0.1391,0.1392,0,0.1445,0.1445,0.1446,0.1501,0.1501,0.1502,0.1503,0.1585,0.1587,0.1588,0,0,0,0,0,0,0,0,0,0,0,0,0,0.1336,0.1336,0.1391,0.1392,0.1393,0.1445,0.1445,0.1446,0.15,0.1501,0.1502,0.1503,0.1585,0.1586,0.1588,0,0,0,0,0,0,0,0,0,0,0,0,0,0.1371,0.1337,0.1391,0.1426,0.143,0.1445,0.1445,0.1446,0.15,0.1501,0.1503,0.1504,0.1584,0.1586,0.1588,0.1578,0,0,0.1595,0.1596,0,0,0,0,0,0,0,0,0.1369,0.1373,0.142,0.1424,0.1428,0.1468,0.1456,0.1492,0.15,0.1473,0.1503,0.1504,0.1548,0.1553,0.1559,0.1581,0.1585,0.1595,0.1596,0.1597,0.1598,0,0,0,0,0,0,0,0.1366,0.1371,0.1412,0.1421,0.1426,0.144,0.1446,0.1463,0.1503,0.1475,0.148,0.1486,0.155,0.1557,0.1562,0.1586,0.1595,0.1597,0.1598,0.1599,0.1699,0.1701,0,0,0,0,0,0,0.136,0.1368,0.141,0.1413,0.1402,0.144,0.1447,0.1453,0.1502,0.1511,0.1485,0.1489,0.1553,0.1559,0.1565,0.1639,0.1597,0.1599,0.1601,0.1698,0.17,0.1701,0,0,0,0,0,0,0.1358,0.1363,0.1408,0.1393,0.14,0.1439,0.1446,0.1454,0.1492,0.151,0.1519,0.1519,0.1554,0.1562,0.1607,0.1639,0.16,0.1602,0.1696,0.1698,0.17,0.1733,0,0,0,0,0,0,0.1356,0.1362,0.138,0.1392,0.14,0.1435,0.1446,0.1454,0.1492,0.1498,0.1541,0.1548,0.1556,0.1603,0.1609,0.1642,0.1604,0.1695,0.1697,0.17,0.173,0.1736,0.1741,0,0,0,0,0,0.1354,0.1369,0.1381,0.1387,0.1419,0.1436,0.1442,0.1473,0.1493,0.1512,0.1544,0.1549,0.1624,0.1606,0.1612,0.1646,0.1693,0.1697,0.17,0.1728,0.1735,0.1741,0,0,0,0,0,0,0.1353,0.1376,0.139,0.1411,0.1432,0.1446,0.147,0.1488,0.1527,0.1544,0.1561,0.157,0.1624,0.1629,0.1609,0.1684,0.1662,0.1666,0.1681,0.1688,0.1693,0.1691,0.1606,0,0,0,0,0,0.1359,0.1382,0.1399,0.1419,0.1431,0.1456,0.1474,0.1494,0.1521,0.1541,0.1572,0.1606,0.1635,0.1657,0.1682,0.1718,0.1729,0.1746,0.1751,0.1756,0.176,0.1809,0.1819,0.1711,0.1711,0.1711,0,0,0.1365,0.1381,0.1395,0.1422,0.1442,0.1461,0.1471,0.1504,0.153,0.1543,0.1601,0.1628,0.165,0.1694,0.1719,0.1706,0.1792,0.176,0.1763,0.1765,0.1813,0.1823,0.1833,0.1713,0.1713,0.1713,0,0,0.1372,0.1402,0.1418,0.1439,0.1473,0.1486,0.1502,0.1535,0.1565,0.1608,0.1631,0.1676,0.172,0.1743,0.1758,0.1806,0.182,0.1825,0.185,0.1898,0.1907,0.1915,0.1938,0.1948,0.1826,0.1826,0.1826,0,0.1383,0.14,0.1426,0.1445,0.1465,0.15,0.1519,0.1549,0.1597,0.1627,0.1635,0.1721,0.174,0.1792,0.1813,0.1818,0.1844,0.1822,0.1904,0.1913,0.1921,0.1942,0.1953,0.1828,0.1827,0.1827,0.1827,0,0.1389,0.1418,0.143,0.1466,0.1492,0.1517,0.1553,0.1598,0.1638,0.1668,0.1741,0.1769,0.1822,0.1836,0.1839,0.191,0.1908,0.1906,0.1886,0.1933,0.1953,0.1963,0.183,0.183,0.1829,0.1829,0,0,0.1374,0.1425,0.1434,0.1456,0.1508,0.1526,0.158,0.1631,0.1679,0.1733,0.1791,0.1843,0.1876,0.1895,0.1914,0.1951,0.2022,0.1958,0.1959,0.1975,0.2124,0.1992,0.1991,0.2045,0.2047,0.2049,0.2113,0,0.1374,0.1407,0.1436,0.1479,0.1498,0.1553,0.1597,0.1656,0.1713,0.1782,0.1828,0.1893,0.1893,0.1934,0.1972,0.2021,0.2053,0.2004,0.208,0.2081,0.1955,0.1999,0.2056,0.2121,0.2123,0.2125,0.2126,0,0.1364,0.139,0.1427,0.1489,0.1504,0.1543,0.163,0.1679,0.1777,0.1824,0.1899,0.1943,0.2021,0.2007,0.2107,0.2084,0.2109,0.2129,0.2132,0.2004,0.1968,0.2066,0.2145,0.2143,0.2142,0.2141,0.214,0,0.1326,0.1384,0.1416,0.1438,0.1511,0.1554,0.1607,0.17,0.1751,0.187,0.1924,0.2012,0.2081,0.2128,0.2179,0.2163,0.2273,0.2251,0.2147,0.2137,0.2222,0.2213,0.231,0.231,0.231,0.231,0.2309,0,0.1299,0.1329,0.1409,0.1427,0.1468,0.1546,0.1615,0.1679,0.1789,0.1845,0.1955,0.2008,0.2123,0.2193,0.221,0.2212,0.2304,0.2155,0.2149,0.2233,0.2225,0.2229,0.2219,0.2312,0.2311,0.2311,0.2311,0,0.1245,0.1298,0.1335,0.1422,0.1447,0.1486,0.1594,0.1641,0.1773,0.1853,0.1898,0.2045,0.2139,0.2217,0.2307,0.2248,0.226,0.2233,0.2319,0.2317,0.2081,0.2072,0.2115,0.2111,0.2108,0.2105,0.2103,0,0.1215,0.1232,0.1311,0.1315,0.1355,0.1429,0.1463,0.1604,0.1655,0.1846,0.1864,0.2022,0.2097,0.2122,0.2214,0.2239,0.2214,0.2198,0.2127,0.2073,0.2064,0.206,0.2056,0.2097,0.2096,0.2095,0.2094,0,0.1149,0.1192,0.1209,0.1219,0.1253,0.1289,0.1365,0.1399,0.1566,0.1705,0.1789,0.1857,0.1964,0.2038,0.2086,0.2093,0.2194,0.2161,0.2167,0.2101,0.2052,0.2045,0.2045,0.2083,0.2084,0.2085,0.2086,0,0.1094,0.1076,0.1098,0.1094,0.1118,0.1121,0.1196,0.1268,0.1351,0.1578,0.1602,0.1778,0.1933,0.1963,0.1998,0.2009,0.1973,0.1894,0.1913,0.1927,0.1838,0.1747,0.1682,0,0,0,0,0,0.1023,0.0977,0.0963,0.0933,0.0953,0.0977,0.1097,0.1193,0.1375,0.1383,0.1493,0.1581,0.1677,0.1775,0.175,0.1907,0.1969,0.1867,0.1883,0.2017,0.203,0.1943,0,0,0,0,0,0,0.0964,0.0942,0.0918,0.0802,0.0759,0.0773,0.0856,0.0991,0.1024,0.1226,0.1296,0.1447,0.1572,0.1652,0.1699,0.1727,0.1699,0.1982,0.1977,0.2009,0.2021,0.2032,0.1947,0,0,0,0,0]},{"header":{"parameterUnit":"m.s-1","parameterCategory":2,"la1":30.2991,"la2":30.254,"lo1":-89.0895,"lo2":-89.0444,"dy":0.0017,"dx":0.0017,"nx":28,"ny":28,"refTime":"2024-03-30T21:00:00:Z","depth":"4","parameterNumber":3,"parameterNumberName":"V-component_of_CURRENTS"},"data":[0,0,0,0,0,0,0,0,0,0,0,0,0,0,0,0,0,0,0,0,0,0,0,0,0,0,0,0,0,0,0,0,0,0,0,0,0,0,0,0,0,0,0,0,0,0,0,0,0,0,0,0,0,0,0,0,0,0,-0.0005,-0.0005,0,-0.003,-0.0031,-0.0031,-0.0051,-0.0051,-0.0051,-0.0051,-0.0087,-0.0087,-0.0088,0,0,0,0,0,0,0,0,0,0,0,0,0,-0.0,-0.0,-0.0005,-0.0005,-0.0006,-0.003,-0.0031,-0.0031,-0.0051,-0.0051,-0.0051,-0.0051,-0.0086,-0.0087,-0.0088,0,0,0,0,0,0,0,0,0,0,0,0,0,-0.0012,-0.0,-0.0005,-0.0018,-0.0019,-0.003,-0.0031,-0.0031,-0.0051,-0.0051,-0.0051,-0.0051,-0.0086,-0.0087,-0.0088,-0.0092,0,0,-0.0092,-0.0093,0,0,0,0,0,0,0,0,-0.0011,-0.0012,-0.0016,-0.0017,-0.0019,-0.0037,-0.0042,-0.0052,-0.0051,-0.0039,-0.0051,-0.0051,-0.007,-0.0073,-0.0078,-0.0093,-0.0095,-0.0092,-0.0093,-0.0094,-0.0094,0,0,0,0,0,0,0,-0.0011,-0.0012,-0.0016,-0.0016,-0.0018,-0.0032,-0.0033,-0.0044,-0.0054,-0.004,-0.0042,-0.0044,-0.0071,-0.0077,-0.0079,-0.0096,-0.0092,-0.0093,-0.0094,-0.0095,-0.0117,-0.0117,0,0,0,0,0,0,-0.0005,-0.0011,-0.0015,-0.0016,-0.0015,-0.0031,-0.0033,-0.0031,-0.0054,-0.0057,-0.0043,-0.0044,-0.0075,-0.0078,-0.008,-0.0077,-0.0094,-0.0095,-0.0095,-0.0117,-0.0117,-0.0117,0,0,0,0,0,0,-0.0004,-0.0005,-0.0014,-0.0014,-0.0016,-0.0031,-0.0029,-0.0032,-0.0036,-0.0056,-0.006,-0.0044,-0.0075,-0.0079,-0.0088,-0.0079,-0.0095,-0.0096,-0.0118,-0.0117,-0.0117,-0.0076,0,0,0,0,0,0,-0.0004,-0.0004,-0.0001,-0.0013,-0.0016,-0.0015,-0.0029,-0.0032,-0.0036,-0.0038,-0.0058,-0.0061,-0.0075,-0.0086,-0.0089,-0.0081,-0.0097,-0.0118,-0.0117,-0.0117,-0.0077,-0.0074,-0.0071,0,0,0,0,0,-0.0004,0.0003,-0.0001,-0.0002,-0.0011,-0.0014,-0.0016,-0.0029,-0.0036,-0.0034,-0.0049,-0.0061,-0.0086,-0.0086,-0.009,-0.0082,-0.0118,-0.0118,-0.0117,-0.0078,-0.0075,-0.0071,0,0,0,0,0,0,0.0005,0.0001,-0.0003,0.0002,-0.0004,-0.0017,-0.0018,-0.0025,-0.0036,-0.0039,-0.0059,-0.0063,-0.0068,-0.0082,-0.0082,-0.0089,-0.0104,-0.0105,-0.0073,-0.007,-0.0067,-0.0054,-0.0098,0,0,0,0,0,0.0009,0.0015,0.0007,0.0011,0.0009,-0.0004,-0.0007,-0.0014,-0.0025,-0.003,-0.0043,-0.0059,-0.007,-0.0075,-0.0088,-0.0091,-0.0113,-0.0089,-0.0086,-0.0084,-0.0076,-0.0102,-0.0101,-0.0116,-0.0116,-0.0116,0,0,0.0014,0.0013,0.0015,0.0013,0.0007,0.0013,-0.0006,-0.0008,-0.0001,-0.0032,-0.003,-0.0049,-0.0069,-0.0072,-0.0076,-0.0082,-0.0093,-0.0083,-0.0081,-0.0075,-0.0102,-0.0101,-0.0099,-0.0116,-0.0116,-0.0116,0,0,0.0028,0.0024,0.0034,0.0034,0.003,0.0024,0.0026,0.0016,0.0012,0.001,-0.001,-0.0024,-0.004,-0.0051,-0.006,-0.0049,-0.0078,-0.0055,-0.0027,-0.0052,-0.0051,-0.005,-0.0084,-0.0087,-0.0052,-0.0052,-0.0052,0,0.0033,0.0045,0.0036,0.0046,0.0051,0.0033,0.0047,0.0042,0.003,0.003,0.0016,-0.0009,-0.0029,-0.003,-0.0028,-0.0041,-0.0064,-0.0037,-0.0048,-0.0048,-0.0047,-0.0082,-0.0086,-0.005,-0.005,-0.005,-0.005,0,0.0055,0.0065,0.0071,0.0081,0.0085,0.0093,0.0088,0.0089,0.008,0.0072,0.0065,0.0036,0.0021,0.0011,-0.0004,-0.0009,-0.003,-0.0042,-0.0054,-0.0043,-0.0081,-0.0085,-0.0047,-0.0048,-0.0048,-0.0049,0,0,0.0068,0.0083,0.0087,0.0101,0.0106,0.0114,0.0126,0.0132,0.0143,0.0121,0.0129,0.0102,0.0081,0.007,0.0045,0.0023,-0.0002,-0.0005,-0.0007,-0.0034,-0.0066,-0.0069,-0.0075,-0.0017,-0.0017,-0.0017,-0.0096,0,0.0088,0.0119,0.0121,0.0153,0.0169,0.0165,0.0182,0.0185,0.0177,0.0178,0.0146,0.0141,0.0105,0.01,0.0072,0.0018,-0.001,0.002,-0.0077,-0.008,-0.008,-0.0078,-0.0018,-0.0099,-0.01,-0.0101,-0.0101,0,0.0111,0.013,0.0166,0.0197,0.0205,0.0225,0.025,0.0262,0.0256,0.025,0.0232,0.0202,0.017,0.0138,0.0051,0.0071,0.0008,-0.0038,-0.0043,-0.006,-0.0089,-0.0112,-0.011,-0.0109,-0.0108,-0.0108,-0.0107,0,0.013,0.0163,0.0196,0.0206,0.0236,0.0259,0.0277,0.0285,0.0305,0.0296,0.0303,0.0251,0.0234,0.0151,0.0051,0.005,-0.0051,-0.0068,-0.0132,-0.0134,-0.0126,-0.0126,-0.013,-0.013,-0.013,-0.0129,-0.0129,0,0.0153,0.018,0.0212,0.0232,0.028,0.0291,0.0341,0.0346,0.0365,0.0395,0.0344,0.0349,0.0237,0.0165,0.0066,-0.0045,-0.0045,-0.0125,-0.015,-0.0109,-0.0106,-0.013,-0.0129,-0.0132,-0.0132,-0.0131,-0.0131,0,0.0168,0.0186,0.0227,0.0271,0.0291,0.0327,0.0392,0.043,0.0435,0.0471,0.0473,0.0419,0.0326,0.0202,0.0064,-0.0017,-0.013,-0.0171,-0.0121,-0.0143,-0.0202,-0.0198,-0.0249,-0.025,-0.025,-0.0251,-0.0251,0,0.0177,0.0199,0.0258,0.0297,0.0323,0.0383,0.0434,0.0463,0.0511,0.0516,0.0542,0.0461,0.0409,0.0216,0.0074,-0.0122,-0.0148,-0.0211,-0.0202,-0.0193,-0.0212,-0.0207,-0.0203,-0.0252,-0.0252,-0.0252,-0.0252,0,0.0195,0.0216,0.0255,0.0337,0.0399,0.0474,0.0549,0.0582,0.062,0.0616,0.0606,0.05,0.0393,0.023,0.0076,-0.0064,-0.0172,-0.0218,-0.0217,-0.021,-0.0197,-0.0215,-0.021,-0.0254,-0.0254,-0.0254,-0.0254,0,0.0212,0.0243,0.0304,0.0381,0.0462,0.0554,0.0584,0.0646,0.0682,0.068,0.067,0.0543,0.0465,0.0259,0.0118,-0.0021,-0.0058,-0.0102,-0.0108,-0.0108,-0.0045,-0.0007,-0.0023,0,0,0,0,0,0.023,0.0279,0.0349,0.0441,0.0526,0.0581,0.0665,0.0692,0.0713,0.0716,0.0697,0.0596,0.0386,0.0296,0.0158,0.0096,-0.009,-0.0072,-0.0145,-0.0265,-0.0263,-0.0213,0,0,0,0,0,0,0.0246,0.031,0.0354,0.0487,0.0558,0.0664,0.0718,0.0732,0.0741,0.0726,0.0622,0.0558,0.0359,0.0466,0.0155,0.011,0.0044,-0.0172,-0.0176,-0.0266,-0.0264,-0.0263,-0.0211,0,0,0,0,0]}]]